Location: Birstum
(53.0733°N, 5.8443°E)
Time: 19:23:31
(UTC+00:00)

Daily predictions for brighter satellites

Satellite Brightness Start Highest point End
(mag) Time Altitude Azimuth Time Altitude Azimuth Time Altitude Azimuth
USA 215 3.4 16:05:19 10° ESE 16:11:53 84° SSW 16:18:29 10° WNW
Cosmos 2263 Rocket 4.1 16:12:12 10° WNW 16:16:09 19° NNW 16:20:08 10° NNE
Cosmos 2344 4.0 16:09:32 10° NW 16:16:38 47° NNE 16:25:18 10° E
Cosmos 1844 Rocket 3.7 16:12:22 10° WSW 16:17:40 43° NW 16:23:01 10° NNE
Cosmos 1025 Rocket 3.9 16:13:58 10° NNW 16:18:12 55° W 16:22:23 10° S
Cosmos 1802 Rocket 4.1 16:12:44 10° S 16:19:09 79° E 16:25:35 10° NNE
ARIANE 6 FM1 Upper Stage 3.7 16:16:09 10° W 16:19:46 32° NNW 16:23:23 10° NE
Iridium 4 Rocket 3.3 16:15:47 10° S 16:20:45 89° E 16:25:19 10° N
SAR-Lupe-4 4.1 16:18:03 10° SE 16:21:23 38° ENE 16:24:43 10° N
ISS -2.0 16:25:29 10° SSW 16:28:05 21° SSE 16:30:40 10° E
COSMOS 2406 3.9 16:23:43 10° NNW 16:28:49 32° NE 16:33:53 10° ESE
Cosmos 1833 Rocket 3.5 16:23:19 10° NW 16:28:53 58° WSW 16:34:23 10° SSE
USA 281 4.4 16:25:23 10° ENE 16:30:06 21° NNE 16:34:50 10° NNW
CZ-2D R/B 3.3 16:27:43 10° SE 16:30:37 35° ENE 16:33:33 10° N
Cosmos 407 Rocket 4.2 16:27:04 10° SSE 16:31:38 32° ESE 16:36:10 10° NE
Cosmos 1484 Rocket 3.2 16:29:19 10° S 16:32:48 60° WSW 16:36:20 10° NNW
Cosmos 2016 Rocket 4.1 16:26:44 10° S 16:33:03 83° E 16:39:28 10° NNE
Cosmos 1812 3.8 16:32:04 10° ESE 16:33:40 14° E 16:34:33 13° ENE
Tsikada Rocket 4.1 16:27:42 10° N 16:34:11 85° E 16:40:34 10° S
CBERS-1 4.3 16:30:08 10° S 16:35:14 73° WSW 16:40:23 10° NNW
IRS-P3 4.4 16:30:51 10° SE 16:35:55 46° ENE 16:41:00 10° N
Cosmos 1606 4.2 16:34:16 10° SW 16:36:30 23° WNW 16:38:44 10° NNW
Cosmos 2084 Rocket 3.4 16:35:58 10° SW 16:40:10 89° SE 16:44:07 12° NE
SMAP 3.0 16:38:21 10° SSE 16:43:00 77° ENE 16:47:40 10° NNW
Cosmos 540 Rocket 3.4 16:38:19 10° NNW 16:43:29 72° ENE 16:48:35 10° SSE
Cosmos 44 Rocket 4.3 16:40:18 10° S 16:44:19 27° ESE 16:47:38 14° ENE
SJ 16-02 2.9 16:44:22 10° SE 16:46:53 15° E 16:47:54 14° E
Cosmos 2297 Rocket 4.2 16:45:20 10° NNW 16:47:46 13° N 16:50:11 10° NNE
SPOT 1/Viking Rocket 4.1 16:43:09 10° SE 16:47:50 36° ENE 16:52:34 10° N
Radarsat 4.5 16:42:44 10° SSE 16:47:54 78° ENE 16:53:06 10° NNW
Cosmos 1869 3.5 16:45:20 10° SSE 16:48:35 36° E 16:51:50 10° NNE
YAOGAN 1 3.6 16:46:15 10° ESE 16:49:41 24° ENE 16:53:07 10° N
IGS 5A 3.9 16:46:12 10° S 16:50:08 63° WSW 16:54:06 10° NNW
SL-16 R/B 2.7 16:45:27 10° NNE 16:51:45 83° WNW 16:58:01 10° SSW
Cosmos 1763 Rocket 3.5 16:46:40 10° NNW 16:51:56 87° WSW 16:57:05 10° SSE
SAR-Lupe-5 4.4 16:51:19 10° NNE 16:53:56 75° WNW 16:56:34 10° SSW
Landsat 7 3.7 16:50:31 10° SSE 16:55:09 73° ENE 16:59:49 10° NNW
Nadezhda 4 Rocket 4.3 16:51:13 10° N 16:57:11 42° ENE 17:03:03 10° SE
Timation 1 Rocket 4.4 16:51:37 10° NW 16:57:38 83° WSW 17:03:36 10° SSE
RESURS DK-1 2.6 16:53:44 10° NW 16:57:44 70° WSW 17:01:42 10° SSE
Spot 4 Rocket 4.5 16:54:07 10° SE 16:58:48 38° ENE 17:03:29 10° N
Cosmos 1140 Rocket 3.5 16:55:20 10° SSW 17:00:31 88° WNW 17:05:42 10° NNE
Aureole 3 Rocket 3.0 16:58:51 10° SSE 17:01:35 31° E 17:03:44 16° NE
CZ-4C R/B 3.0 16:57:05 10° W 17:01:42 41° NNW 17:06:52 13° NE
Resurs 1-3 4.3 17:00:11 10° SE 17:03:56 30° ENE 17:07:42 10° N
UNK 3.7 17:00:10 10° NNE 17:04:49 81° ESE 17:09:26 10° SSW
Meteor 1-28 Rocket 3.7 17:01:41 10° N 17:05:00 53° WNW 17:08:17 10° SSW
SJ-6F 4.2 17:03:09 10° SSE 17:07:02 69° ENE 17:10:58 10° N
Meteor 2-12 Rocket 4.4 17:02:04 10° N 17:08:13 88° E 17:14:17 10° S
Cosmos 1536 Rocket 3.8 17:06:40 10° N 17:10:58 45° ENE 17:15:11 10° SSE
Cosmos 1400 Rocket 3.8 17:08:01 10° SE 17:11:05 23° E 17:11:08 23° E
Cosmos 371 Rocket 4.4 17:07:46 10° SSE 17:11:23 22° E 17:12:04 21° E
SJ-12 3.8 17:07:43 10° SSE 17:11:31 79° WSW 17:15:20 10° NNW
SAR-Lupe-3 3.8 17:13:47 31° NE 17:14:45 54° ESE 17:17:20 10° S
Cosmos 489 Rocket 4.4 17:11:26 10° NNW 17:17:41 64° ENE 17:23:51 10° SE
Okean 2 Rocket 3.8 17:14:39 10° SSE 17:18:28 30° E 17:20:03 23° NE
ATLAS CENTAUR R/B 3.0 17:23:21 10° WNW 17:25:53 19° NNW 17:27:35 14° NNE
COSMO-SKYMED 1 3.2 17:26:49 29° E 17:26:49 29° E 17:30:24 10° SSE
NOAA 6 4.3 17:22:08 10° SE 17:26:57 42° ENE 17:31:47 10° N
SL-12 R/B(2) 4.4 17:19:26 10° SSW 17:27:28 70° SE 17:35:47 16° NE
Geosat 4.3 17:25:22 21° ESE 17:28:27 45° NE 17:33:13 10° NNW
Resurs 01 Rocket 2.8 17:30:11 25° NE 17:30:11 25° NE 17:33:05 10° N
Cosmos 1943 Rocket 2.1 17:25:24 10° SSW 17:31:00 74° ESE 17:35:17 18° NE
Timation 2 Rocket 4.1 17:25:32 10° SSW 17:32:24 79° ESE 17:38:22 14° NE
Cosmos 841 Rocket 3.5 17:27:28 10° NNW 17:32:43 63° ENE 17:37:55 10° SE
Cosmos 2058 2.8 17:28:59 10° NNW 17:32:59 86° WSW 17:36:58 10° S
Cosmos 2251 Rocket 3.6 17:29:52 10° S 17:35:02 58° ESE 17:38:36 20° NE
Cosmos 2227 Rocket 4.3 17:34:03 10° NNW 17:36:25 12° N 17:38:42 10° NNE
SJ-7 4.1 17:33:26 10° SSE 17:37:04 61° ENE 17:40:44 10° N
Cosmos 2082 Rocket 2.4 17:32:16 10° NW 17:37:53 71° WSW 17:43:27 10° SSE
BREEZE-M DEB (TANK) 3.1 17:35:16 10° SW 17:37:55 43° SSE 17:39:49 29° ESE
ATLAS 2AS CENTAUR R/B 2.9 17:32:10 10° NW 17:38:51 53° NNE 17:42:14 28° E
Cosmos 1346 Rocket 3.4 17:36:04 10° N 17:38:39 33° NNE 17:38:39 33° NNE
IRAS Rocket 4.1 17:38:39 10° SSE 17:44:12 81° ENE 17:49:45 10° NNW
Cosmos 1602 4.0 17:41:15 10° NNW 17:44:15 51° W 17:47:14 10° S
Cosmos 2278 Rocket 2.1 17:38:49 10° SSW 17:44:29 86° ESE 17:48:33 20° NNE
MOS 1 Rocket 3.6 17:42:07 10° S 17:46:25 64° W 17:50:59 10° NNW
Cosmos 1464 Rocket 3.9 17:44:50 10° S 17:51:06 74° E 17:57:19 10° NNE
ARIANE 5 R/B 4.0 17:46:57 10° SSW 17:51:33 37° W 17:56:11 10° NNW
CZ-2D R/B 3.6 17:47:59 10° S 17:52:09 77° WSW 17:56:24 10° NNW
Cosmos 1862 3.4 17:51:48 10° NNW 17:55:24 65° W 17:58:59 10° S
PSLV R/B 3.3 17:53:53 10° SSE 17:57:56 90° SW 18:01:59 10° NNW
ARIANE 6 FM1 Upper Stage 4.2 17:56:36 10° NW 17:59:46 22° N 17:59:56 22° N
Cosmos 2151 Rocket 3.5 17:57:07 10° S 18:01:37 90° NNW 18:05:04 17° N
Cosmos 2263 Rocket 4.3 18:00:09 10° NNW 18:02:27 12° N 18:04:12 11° NNE
Cosmos 1190 Rocket 3.9 17:57:32 10° SSW 18:02:50 80° ESE 18:05:27 31° NNE
ISS -3.0 18:01:07 10° WSW 18:03:52 48° SSW 18:03:52 48° SSW
Cosmos 2034 Rocket 3.9 17:58:55 10° S 18:05:03 65° E 18:11:17 10° NNE
Cosmos 1812 3.6 18:03:09 10° SW 18:05:51 34° WNW 18:06:21 32° NW
Cosmos 676 Rocket 4.0 18:00:47 10° S 18:05:57 56° ESE 18:06:42 51° ENE
SKYMED 2 3.5 18:03:52 24° NNE 18:06:26 87° WNW 18:10:47 10° SSW
Okean 1 Rocket 2.9 18:03:54 10° S 18:08:17 71° E 18:08:25 71° E
Cosmos 1656 Rocket 4.1 18:03:26 10° S 18:07:59 40° SE 18:07:59 40° SE
Cosmos 220 Rocket 3.7 18:07:17 10° NNW 18:11:16 79° NNE 18:11:16 79° NNE
Cosmos 407 Rocket 4.3 18:08:23 10° SW 18:13:23 48° WNW 18:17:08 17° NNE
USA 281 3.3 18:11:29 41° ESE 18:13:29 56° NE 18:19:54 10° NNW
COSMOS 2406 3.5 18:07:53 10° NW 18:13:34 68° WSW 18:19:01 11° SSE
Sich 1 Rocket 3.5 18:09:29 10° S 18:14:02 82° E 18:14:56 57° NNE
Cosmos 1954 Rocket 3.9 18:09:58 10° SSW 18:15:15 83° ESE 18:16:54 45° NNE
Cosmos 1092 Rocket 3.8 18:09:05 10° N 18:15:23 72° ENE 18:21:33 10° SSE
SL-19 R/B 4.5 18:14:22 10° S 18:19:30 63° WSW 18:24:45 10° NNW
Cosmos 2026 Rocket 3.8 18:14:16 10° N 18:20:23 85° E 18:26:33 10° S
SJ 16-02 1.3 18:20:08 10° SSW 18:24:27 77° WNW 18:24:29 77° WNW
YAOGAN 1 3.4 18:21:10 10° S 18:25:17 49° W 18:29:28 10° NNW
Cosmos 44 Rocket 3.5 18:20:34 10° SW 18:25:22 67° NW 18:26:14 55° N
Cosmos 2344 3.9 18:23:57 10° NW 18:31:43 80° SW 18:38:34 23° SE
Cosmos 1892 Rocket 4.5 18:28:30 10° NNW 18:31:19 40° NNW 18:31:19 40° NNW
Cosmos 2297 Rocket 4.0 18:30:12 10° NNW 18:33:09 18° NNE 18:33:09 18° NNE
Meteor 2-3 Rocket 4.0 18:30:39 10° NNW 18:36:20 67° W 18:41:54 10° S
Cosmos 1400 Rocket 4.3 18:42:51 10° SW 18:45:48 34° W 18:45:48 34° W
Cosmos 304 Rocket 4.2 18:44:37 10° SW 18:48:46 58° W 18:48:46 58° W
Cosmos 371 Rocket 3.7 18:46:24 10° SW 18:50:35 59° W 18:50:35 59° W
CZ-4C R/B 3.5 18:46:24 10° WNW 18:51:25 32° N 18:51:50 32° NNE
Okean 2 Rocket 4.5 18:52:16 10° SW 18:56:20 36° WNW 18:57:20 32° NW
COSMO-SKYMED 1 4.2 19:03:11 31° W 19:03:11 31° W 19:05:56 10° SW
Resurs 01 Rocket 3.4 19:07:36 28° NW 19:07:36 28° NW 19:09:53 10° NNW
BREEZE-M DEB (TANK) 4.3 19:09:02 10° WSW 19:11:47 52° SW 19:11:47 52° SW
Cosmos 1943 Rocket 3.7 19:10:22 10° W 19:15:15 30° NW 19:16:48 26° NNW
Cosmos 2227 Rocket 4.4 19:18:48 10° NNW 19:20:29 15° N 19:20:29 15° N
Cosmos 2278 Rocket 3.9 19:24:28 10° W 19:29:15 27° NW 19:30:22 26° NNW
ATLAS 2AS CENTAUR R/B 3.0 19:23:17 10° NW 19:29:41 58° WSW 19:29:41 58° WSW
USA 281 4.2 19:58:22 41° WSW 19:58:22 41° WSW 20:04:24 10° NW
